TimeCST,TemperatureF,Dew PointF,Humidity,Sea Level PressureIn,VisibilityMPH,Wind Direction,Wind SpeedMPH,Gust SpeedMPH,PrecipitationIn,Events,Conditions,WindDirDegrees,DateUTC
12:15 AM,12.2,-0.4,57,29.88,10.0,WNW,18.4,29.9,N/A,,Overcast,290,2013-01-20 06:15:00
12:35 AM,12.2,-0.4,57,29.90,10.0,NW,20.7,29.9,N/A,,Overcast,310,2013-01-20 06:35:00
12:55 AM,10.4,-4.0,52,29.92,10.0,WNW,18.4,27.6,N/A,,Scattered Clouds,300,2013-01-20 06:55:00
1:15 AM,10.4,-2.2,57,29.94,10.0,NW,17.3,26.5,N/A,,Mostly Cloudy,310,2013-01-20 07:15:00
1:35 AM,10.4,-2.2,57,29.96,10.0,WNW,18.4,27.6,N/A,,Scattered Clouds,300,2013-01-20 07:35:00
1:55 AM,10.4,-4.0,52,29.97,10.0,WNW,15.0,25.3,N/A,,Clear,290,2013-01-20 07:55:00
2:15 AM,10.4,-4.0,52,29.99,10.0,WNW,15.0,24.2,N/A,,Clear,300,2013-01-20 08:15:00
2:35 AM,10.4,-4.0,52,30.01,10.0,WNW,11.5,19.6,N/A,,Clear,290,2013-01-20 08:35:00
2:55 AM,8.6,-4.0,57,30.02,10.0,WNW,10.4,23.0,N/A,,Clear,290,2013-01-20 08:55:00
3:15 AM,8.6,-4.0,57,30.03,10.0,West,10.4,16.1,N/A,,Clear,280,2013-01-20 09:15:00
3:35 AM,8.6,-4.0,57,30.05,10.0,WNW,13.8,20.7,N/A,,Clear,290,2013-01-20 09:35:00
3:55 AM,8.6,-4.0,57,30.05,10.0,WNW,11.5,20.7,N/A,,Clear,290,2013-01-20 09:55:00
4:15 AM,8.6,-4.0,57,30.06,10.0,WNW,12.7,18.4,N/A,,Clear,300,2013-01-20 10:15:00
4:35 AM,8.6,-4.0,57,30.07,10.0,WNW,11.5,21.9,N/A,,Clear,290,2013-01-20 10:35:00
4:55 AM,8.6,-4.0,57,30.08,10.0,West,8.1,17.3,N/A,,Clear,280,2013-01-20 10:55:00
5:15 AM,6.8,-4.0,61,30.10,10.0,West,10.4,18.4,N/A,,Clear,280,2013-01-20 11:15:00
5:35 AM,6.8,-4.0,61,30.11,10.0,West,10.4,-,N/A,,Clear,280,2013-01-20 11:35:00
5:55 AM,6.8,-4.0,61,30.12,10.0,West,9.2,-,N/A,,Clear,280,2013-01-20 11:55:00
6:15 AM,6.8,-4.0,61,30.14,10.0,West,11.5,17.3,N/A,,Clear,280,2013-01-20 12:15:00
6:35 AM,5.0,-4.0,66,30.15,10.0,WNW,11.5,19.6,N/A,,Clear,290,2013-01-20 12:35:00
6:55 AM,5.0,-4.0,66,30.15,10.0,West,9.2,17.3,N/A,,Clear,280,2013-01-20 12:55:00
7:15 AM,5.0,-4.0,66,30.16,10.0,West,9.2,-,N/A,,Clear,280,2013-01-20 13:15:00
7:35 AM,5.0,-4.0,66,30.18,10.0,West,9.2,-,N/A,,Clear,280,2013-01-20 13:35:00
7:55 AM,5.0,-5.8,61,30.21,10.0,WNW,6.9,16.1,N/A,,Clear,290,2013-01-20 13:55:00
8:15 AM,5.0,-5.8,61,30.21,10.0,West,9.2,16.1,N/A,,Clear,280,2013-01-20 14:15:00
8:35 AM,5.0,-5.8,61,30.22,10.0,WNW,10.4,16.1,N/A,,Clear,290,2013-01-20 14:35:00
8:55 AM,5.0,-5.8,61,30.22,10.0,WNW,10.4,17.3,N/A,,Clear,290,2013-01-20 14:55:00
9:15 AM,5.0,-5.8,61,30.23,10.0,WNW,10.4,19.6,N/A,,Clear,290,2013-01-20 15:15:00
9:35 AM,6.8,-5.8,56,30.23,10.0,WNW,11.5,16.1,N/A,,Clear,290,2013-01-20 15:35:00
9:55 AM,8.6,-4.0,57,30.23,10.0,WNW,10.4,-,N/A,,Clear,300,2013-01-20 15:55:00
10:15 AM,8.6,-4.0,57,30.24,10.0,WNW,8.1,-,N/A,,Clear,300,2013-01-20 16:15:00
10:35 AM,8.6,-4.0,57,30.24,10.0,WNW,8.1,-,N/A,,Clear,300,2013-01-20 16:35:00
10:55 AM,10.4,-4.0,52,30.24,10.0,WNW,9.2,-,N/A,,Clear,290,2013-01-20 16:55:00
11:15 AM,10.4,-4.0,52,30.23,10.0,NW,8.1,-,N/A,,Clear,310,2013-01-20 17:15:00
11:35 AM,10.4,-4.0,52,30.23,10.0,West,6.9,-,N/A,,Clear,270,2013-01-20 17:35:00
11:55 AM,12.2,-4.0,48,30.23,10.0,West,10.4,-,N/A,,Clear,270,2013-01-20 17:55:00
12:15 PM,12.2,-4.0,48,30.22,10.0,West,11.5,16.1,N/A,,Clear,270,2013-01-20 18:15:00
12:35 PM,12.2,-4.0,48,30.21,10.0,West,10.4,16.1,N/A,,Clear,270,2013-01-20 18:35:00
12:55 PM,12.2,-4.0,48,30.21,10.0,West,12.7,18.4,N/A,,Clear,260,2013-01-20 18:55:00
1:15 PM,12.2,-5.8,45,30.21,10.0,WNW,11.5,18.4,N/A,,Clear,300,2013-01-20 19:15:00
1:35 PM,12.2,-5.8,45,30.21,10.0,West,11.5,18.4,N/A,,Clear,270,2013-01-20 19:35:00
1:55 PM,12.2,-7.6,41,30.20,10.0,WNW,10.4,18.4,N/A,,Clear,300,2013-01-20 19:55:00
2:15 PM,12.2,-7.6,41,30.20,10.0,WNW,9.2,17.3,N/A,,Clear,300,2013-01-20 20:15:00
2:35 PM,12.2,-7.6,41,30.20,10.0,WNW,11.5,17.3,N/A,,Clear,290,2013-01-20 20:35:00
2:55 PM,14.0,-7.6,38,30.19,10.0,WNW,10.4,-,N/A,,Clear,300,2013-01-20 20:55:00
3:15 PM,12.2,-7.6,41,30.18,10.0,West,9.2,-,N/A,,Clear,260,2013-01-20 21:15:00
3:35 PM,12.2,-7.6,41,30.19,10.0,West,11.5,-,N/A,,Clear,260,2013-01-20 21:35:00
3:55 PM,12.2,-5.8,45,30.19,10.0,West,9.2,16.1,N/A,,Clear,280,2013-01-20 21:55:00
4:15 PM,12.2,-5.8,45,30.19,10.0,West,9.2,-,N/A,,Clear,270,2013-01-20 22:15:00
4:35 PM,12.2,-5.8,45,30.19,10.0,West,8.1,-,N/A,,Clear,280,2013-01-20 22:35:00
5:15 PM,12.2,-5.8,45,30.18,10.0,West,3.5,-,N/A,,Scattered Clouds,260,2013-01-20 23:15:00
5:35 PM,10.4,-5.8,48,30.18,10.0,West,5.8,-,N/A,,Scattered Clouds,260,2013-01-20 23:35:00
5:55 PM,10.4,-5.8,48,30.18,10.0,West,3.5,-,N/A,,Mostly Cloudy,280,2013-01-20 23:55:00
6:15 PM,10.4,-5.8,48,30.18,10.0,West,5.8,-,N/A,,Mostly Cloudy,270,2013-01-21 00:15:00
6:35 PM,10.4,-5.8,48,30.18,10.0,West,3.5,-,N/A,,Overcast,280,2013-01-21 00:35:00
6:55 PM,10.4,-5.8,48,30.18,10.0,West,4.6,-,N/A,,Scattered Clouds,280,2013-01-21 00:55:00
7:15 PM,10.4,-5.8,48,30.18,10.0,West,5.8,-,N/A,,Clear,280,2013-01-21 01:15:00
7:35 PM,8.6,-5.8,52,30.18,10.0,West,8.1,-,N/A,,Clear,280,2013-01-21 01:35:00
7:55 PM,8.6,-5.8,52,30.18,10.0,West,6.9,-,N/A,,Clear,280,2013-01-21 01:55:00
8:15 PM,8.6,-5.8,52,30.18,10.0,West,6.9,-,N/A,,Clear,270,2013-01-21 02:15:00
8:35 PM,8.6,-5.8,52,30.18,10.0,WNW,5.8,-,N/A,,Clear,290,2013-01-21 02:35:00
8:55 PM,8.6,-5.8,52,30.18,10.0,West,4.6,-,N/A,,Clear,270,2013-01-21 02:55:00
9:15 PM,8.6,-5.8,52,30.17,10.0,West,5.8,-,N/A,,Clear,280,2013-01-21 03:15:00
9:35 PM,6.8,-5.8,56,30.16,10.0,West,5.8,-,N/A,,Clear,270,2013-01-21 03:35:00
9:55 PM,6.8,-5.8,56,30.16,10.0,West,8.1,-,N/A,,Clear,280,2013-01-21 03:55:00
10:15 PM,5.0,-5.8,61,30.16,10.0,WNW,6.9,-,N/A,,Scattered Clouds,290,2013-01-21 04:15:00
10:35 PM,5.0,-5.8,61,30.15,10.0,West,6.9,-,N/A,,Mostly Cloudy,280,2013-01-21 04:35:00
10:55 PM,5.0,-5.8,61,30.15,10.0,West,8.1,-,N/A,,Overcast,270,2013-01-21 04:55:00
11:15 PM,5.0,-5.8,61,30.15,10.0,WNW,9.2,-,N/A,,Overcast,290,2013-01-21 05:15:00
11:35 PM,5.0,-5.8,61,30.15,10.0,West,8.1,-,N/A,,Overcast,280,2013-01-21 05:35:00
11:55 PM,5.0,-5.8,61,30.14,10.0,WNW,6.9,-,N/A,,Overcast,290,2013-01-21 05:55:00